Valladolid Airport, Spain

2:14 AM CEST on April 21, 2018 (GMT +0200)
Villanubla

Weather History for LEVD - October, 2012

Change the Weather History Date:

Thursday, October 4, 2012

  Actual Average Record
Temperature  
Mean Temperature 56 °F -  
Max Temperature 71 °F - - ()
Min Temperature 42 °F - - ()
Degree Days  
Heating Degree Days 8    
Growing Degree Days 6 (Base 50)    
Moisture  
Dew Point 44 °F    
Average Humidity 59    
Maximum Humidity 93    
Minimum Humidity 31    
Precipitation  
Precipitation 0.00 in - - ()
Sea Level Pressure  
Sea Level Pressure 30.09 in    
Wind  
Wind Speed 2 mph ()    
Max Wind Speed 5 mph    
Max Gust Speed -    
T = Trace of Precipitation, MM = Missing Value Source: Averaged Metar Reports

Daily Weather History Graph

Daily Weather History Graph

Search for Another Location

Airport or City:

Astronomy

Oct. 04, 2012 Rise Set
Actual Time 8:19 AM CEST 7:55 PM CEST
Civil Twilight 7:52 AM CEST 8:23 PM CEST
Nautical Twilight 7:19 AM CEST 8:55 PM CEST
Astronomical Twilight 6:47 AM CEST 9:27 PM CEST
Moon 10:16 PM CEST (10/4) 12:28 PM CEST (10/4)
Length of Visible Light 12h 31m
Length of Day
11h 35m
Waning Gibbous, 84% of the Moon is Illuminated
Oct 4
Waning Gibbous
Oct 8
Last Quarter
Oct 15
New
Oct 22
First Quarter
Oct 29
Full

Hourly Weather History & Observations

Time (CEST) Temp. Dew Point Humidity Pressure Visibility Wind Dir Wind Speed Gust Speed Precip Events Conditions
6:00 AM 44.6 °F 42.8 °F 93% 30.09 in - Variable 1.2 mph - N/A   Clear
6:30 AM 46.4 °F 44.6 °F 93% 30.09 in - Variable 2.3 mph - N/A   Clear
7:00 AM 46.4 °F 44.6 °F 93% 30.09 in - South 2.3 mph - N/A   Clear
7:30 AM 46.4 °F 42.8 °F 87% 30.09 in - Calm Calm - N/A   Clear
8:00 AM 44.6 °F 42.8 °F 93% 30.09 in - Calm Calm - N/A   Clear
8:30 AM 42.8 °F 41.0 °F 93% 30.09 in - Variable 2.3 mph - N/A   Clear
9:00 AM 42.8 °F 41.0 °F 93% 30.12 in - Variable 2.3 mph - N/A   Clear
9:30 AM 48.2 °F 46.4 °F 93% 30.12 in - Variable 1.2 mph - N/A   Clear
10:00 AM 53.6 °F 46.4 °F 77% 30.12 in - Calm Calm - N/A   Clear
10:30 AM 55.4 °F 46.4 °F 72% 30.12 in - Calm Calm - N/A   Clear
11:00 AM 57.2 °F 46.4 °F 67% 30.12 in - Variable 1.2 mph - N/A   Clear
11:30 AM 59.0 °F 48.2 °F 67% 30.12 in - SSE 3.5 mph - N/A   Clear
12:00 PM 62.6 °F 48.2 °F 59% 30.12 in - South 1.2 mph - N/A   Clear
12:30 PM 64.4 °F 48.2 °F 56% 30.12 in - South 1.2 mph - N/A   Clear
1:00 PM 66.2 °F 48.2 °F 52% 30.12 in - SSE 3.5 mph - N/A   Clear
1:30 PM 66.2 °F 48.2 °F 52% 30.12 in - SSE 3.5 mph - N/A   Clear
2:00 PM 68.0 °F 46.4 °F 46% 30.12 in - SW 1.2 mph - N/A   Clear
2:30 PM 68.0 °F 46.4 °F 46% 30.09 in - SSE 1.2 mph - N/A   Clear
3:00 PM 69.8 °F 44.6 °F 40% 30.09 in - SW 2.3 mph - N/A   Clear
3:30 PM 69.8 °F 44.6 °F 40% 30.09 in - SW 3.5 mph - N/A   Clear
4:00 PM 69.8 °F 44.6 °F 40% 30.06 in - NNE 1.2 mph - N/A   Clear
4:30 PM 71.6 °F 41.0 °F 33% 30.06 in - SE 2.3 mph - N/A   Clear
5:00 PM 71.6 °F 41.0 °F 33% 30.06 in - SSW 1.2 mph - N/A   Clear
5:30 PM 71.6 °F 39.2 °F 31% 30.06 in - WSW 2.3 mph - N/A   Clear
6:00 PM 71.6 °F 39.2 °F 31% 30.06 in - Variable 2.3 mph - N/A   Clear
6:30 PM 71.6 °F 39.2 °F 31% 30.06 in - Variable 1.2 mph - N/A   Clear
7:00 PM 71.6 °F 39.2 °F 31% 30.06 in - Variable 2.3 mph - N/A   Clear
7:30 PM 69.8 °F 39.2 °F 33% 30.06 in - Calm Calm - N/A   Clear
8:00 PM 66.2 °F 41.0 °F 40% 30.06 in - East 2.3 mph - N/A   Clear
8:30 PM 62.6 °F 41.0 °F 45% 30.06 in - Variable 1.2 mph - N/A   Clear
9:00 PM 60.8 °F 42.8 °F 52% 30.06 in - Variable 1.2 mph - N/A   Clear
9:30 PM 57.2 °F 42.8 °F 59% 30.06 in - North 3.5 mph - N/A   Clear
10:00 PM 57.2 °F 42.8 °F 59% 30.06 in - North 3.5 mph - N/A   Clear
10:30 PM 55.4 °F 42.8 °F 63% 30.06 in - North 4.6 mph - N/A   Clear